sat.trackr.live / text

‹ back to catalog

STARLINK-1464

NORAD 45751 · 2020-038X

PAYLOAD ACTIVE UNKNOWN

§ Identity

Operator
Country
US
Launch date
2020-06-13
Launch site
AFETR
Launch vehicle
Mass (kg)
RCS (m²)

Purposes: comms

External: N2YO · Heavens-Above · Gunter

§ Orbital elements

Epoch: 2026-09-19T23:04:09.803712Z

Period
91.57 min
Inclination
53.0433°
Eccentricity
0.0002134
Mean motion
15.72502782 rev/d
Perigee alt
350.3 km
Apogee alt
353.2 km
Semi-major
6,729.9 km
B*
5.1707e-4
RAAN
345.6877°
Arg perigee
51.3045°
Mean anomaly
308.8163°
Rev number
34,687

§ Raw data

STARLINK-14641 45751U 20038X   26262.96122458  .00070435  00000+0  51707-3 0  99912 45751  53.0433 345.6877 0002134  51.3045 308.8163 15.72502782346876

JSON: /api/v1/satellites/45751 · /tle

For live sub-satellite position, see the globe view (requires WebGL).

§ Visibility from observer

Set your observer location to see the next 7 days of passes ≥ 10°. The values pass through the URL so the page stays shareable.

No JS? Fill the form by hand. The geolocation button needs JavaScript.